This demonstration page uses our WeatherBlox Daily Observations layout. Learn more.

Left ArrowRight Arrow

39.51506, -84.39828

Hourly Observations for May 31, 2020

Temp ( °F °C ) Dew Point ( °F °C ) Humidity (%) Winds ( mph kmh ) Pressure ( in mb ) Visibility ( mi km ) Precip ( " mm )
12:15 am 00:15 Clear 56 13.5 50 9.9 79 79 N 3 6 30.2 1023 10 16.0934 0 0
12:35 am 00:35 Clear 55 12.6 50 9.9 84 84 Calm 30.2 1023 10 16.0934 0 0
12:55 am 00:55 Clear 54 12.2 50 9.8 85 85 N 3 6 30.2 1023 10 16.0934 0 0
1:15 am 01:15 Clear 54 12.1 49 9.5 84 84 N 3 6 30.2 1023 10 16.0934 0 0
1:35 am 01:35 Clear 54 12.4 48 9 80 80 N 3 6 30.2 1023 10 16.0934 0 0
1:55 am 01:55 Clear 54 12.2 48 8.8 80 80 NNE 3 6 30.2 1023 10 16.0934 0 0
2:15 am 02:15 Clear 53 11.7 48 8.9 83 83 NNE 3 6 30.2 1023 10 16.0934 0 0
2:35 am 02:35 Clear 53 11.8 48 8.8 82 82 Calm 30.2 1023 10 16.0934 0 0
2:55 am 02:55 Clear 52 11 48 9 88 88 NE 5 7 30.21 1023 10 16.0934 0 0
3:15 am 03:15 Clear 52 10.9 48 8.7 86 86 N 5 7 30.21 1023 10 16.0934 0 0
3:35 am 03:35 Clear 52 10.9 47 8.5 85 85 NNE 8 13 30.21 1023 10 16.0934 0 0
3:55 am 03:55 Clear 52 11.1 47 8.2 82 82 NNE 6 9 30.22 1023 10 16.0934 0 0
4:15 am 04:15 Clear 51 10.8 47 8.1 84 84 NNE 7 11 30.22 1023 10 16.0934 0 0
4:35 am 04:35 Clear 52 11 46 7.7 80 80 NNE 6 9 30.22 1023 10 16.0934 0 0
4:55 am 04:55 Clear 51 10.8 45 7.4 80 80 NNE 6 9 30.23 1024 10 16.0934 0 0
5:15 am 05:15 Clear 51 10.7 45 7.1 79 79 NNE 5 7 30.23 1024 10 16.0934 0 0
5:35 am 05:35 Clear 51 10.7 44 6.8 77 77 NE 3 6 30.24 1024 10 16.0934 0 0
5:55 am 05:55 Clear 51 10.5 44 6.7 78 78 NNE 6 9 30.26 1025 10 16.0934 0 0
6:15 am 06:15 Sunny 50 10.1 44 6.7 80 80 NNE 3 6 30.26 1025 10 16.0934 0 0
6:35 am 06:35 Sunny 50 10 44 6.7 80 80 NNE 6 9 30.28 1025 10 16.0934 0 0
6:55 am 06:55 Sunny 51 10.4 45 7.1 80 80 NNE 3 6 30.29 1026 10 16.0934 0 0
7:15 am 07:15 Sunny 53 11.4 46 7.5 77 77 NNE 5 7 30.3 1026 10 16.0934 0 0
7:35 am 07:35 Sunny 54 12.2 46 8 76 76 NE 3 6 30.29 1026 10 16.0934 0 0
7:55 am 07:55 Sunny 55 12.9 47 8.4 74 74 NE 7 11 30.3 1026 10 16.0934 0 0
8:15 am 08:15 Sunny 56 13.5 48 8.8 73 73 NE 7 11 30.31 1026 10 16.0934 0 0
8:35 am 08:35 Sunny 58 14.3 49 9.3 72 72 NE 8 13 30.31 1026 10 16.0934 0 0
8:55 am 08:55 Sunny 59 14.9 48 9.1 68 68 ENE 8 13 30.31 1026 10 16.0934 0 0
9:15 am 09:15 Hazy 60 15.4 48 8.7 65 65 ENE 10 17 30.32 1027 7 11.26538 0 0
9:35 am 09:35 Sunny 61 15.9 47 8.4 61 61 ENE 9 15 30.3 1026 10 16.0934 0 0
9:55 am 09:55 Sunny 61 16.3 47 8.1 59 59 NNE 9 15 30.31 1027 10 16.0934 0 0
10:15 am 10:15 Sunny 63 17 45 7 52 52 NNE 12 19 30.31 1026 10 16.0934 0 0
10:35 am 10:35 Sunny 63 17.3 43 6.3 49 49 NE 12 19 30.3 1026 10 16.0934 0 0
10:55 am 10:55 Sunny 64 17.7 42 5.5 45 45 NNE 12 19 30.31 1026 10 16.0934 0 0
11:15 am 11:15 Sunny 64 18 42 5.8 45 45 ENE 12 19 30.31 1026 10 16.0934 0 0
11:35 am 11:35 Sunny 65 18.6 44 6.7 46 46 NE 13 20 30.31 1026 10 16.0934 0 0
11:55 am 11:55 Sunny 65 18.5 44 6.7 46 46 ENE 12 19 30.31 1026 10 16.0934 0 0
12:15 pm 12:15 Sunny 65 18.5 42 5.7 43 43 NE 15 24 30.31 1026 10 16.0934 0 0
12:35 pm 12:35 Sunny 65 18.5 43 6.2 45 45 NE 12 19 30.31 1026 10 16.0934 0 0
12:55 pm 12:55 Sunny 66 18.8 44 6.9 46 46 NNE 13 20 30.3 1026 10 16.0934 0 0
1:15 pm 13:15 Sunny 66 18.8 43 6.2 44 44 NNE 9 15 30.3 1026 10 16.0934 0 0
1:35 pm 13:35 Sunny 66 19 44 6.8 45 45 NE 12 19 30.3 1026 10 16.0934 0 0
1:55 pm 13:55 Sunny 67 19.6 45 7.4 45 45 NE 8 13 30.29 1026 10 16.0934 0 0
2:15 pm 14:15 Sunny 67 19.4 43 5.9 41 41 NNE 13 20 30.29 1026 10 16.0934 0 0
2:35 pm 14:35 Sunny 67 19.6 44 6.6 43 43 NE 9 15 30.28 1025 10 16.0934 0 0
2:55 pm 14:55 Sunny 68 19.8 43 6.3 42 42 NE 6 9 30.27 1025 10 16.0934 0 0
3:15 pm 15:15 Sunny 69 20.3 42 5.7 39 39 N 9 15 30.27 1025 10 16.0934 0 0
3:35 pm 15:35 Sunny 69 20.3 43 6 39 39 N 10 17 30.27 1025 10 16.0934 0 0
3:55 pm 15:55 Sunny 68 20.2 42 5.7 39 39 N 8 13 30.26 1025 10 16.0934 0 0
4:15 pm 16:15 Sunny 69 20.5 42 5.3 37 37 NE 14 22 30.26 1025 10 16.0934 0 0
4:35 pm 16:35 Sunny 69 20.3 42 5.6 38 38 N 12 19 30.26 1025 10 16.0934 0 0
4:55 pm 16:55 Sunny 69 20.6 43 6 39 39 NNE 10 17 30.25 1024 10 16.0934 0 0
5:15 pm 17:15 Sunny 69 20.5 43 6 39 39 N 9 15 30.25 1024 10 16.0934 0 0
5:35 pm 17:35 Sunny 69 20.4 42 5.3 37 37 NNW 6 9 30.25 1024 10 16.0934 0 0
5:55 pm 17:55 Sunny 69 20.4 41 5.2 37 37 NE 8 13 30.25 1024 10 16.0934 0 0
6:15 pm 18:15 Sunny 69 20.5 43 5.9 39 39 NNE 10 17 30.24 1024 10 16.0934 0 0
6:35 pm 18:35 Hazy 69 20.4 42 5.7 38 38 NNW 5 7 30.24 1024 5 8.0467 0 0
6:55 pm 18:55 Sunny 68 20.2 41 5.1 37 37 NNE 7 11 30.24 1024 10 16.0934 0 0
7:15 pm 19:15 Sunny 68 20.1 40 4.7 36 36 NNW 8 13 30.24 1024 10 16.0934 0 0
7:35 pm 19:35 Sunny 67 19.7 42 5.8 40 40 NNE 8 13 30.25 1024 10 16.0934 0 0
7:55 pm 19:55 Sunny 67 19.5 42 5.3 40 40 NE 7 11 30.25 1024 10 16.0934 0 0
8:15 pm 20:15 Sunny 66 19 41 5.1 40 40 NE 6 9 30.25 1024 10 16.0934 0 0
8:35 pm 20:35 Sunny 64 17.9 42 5.8 45 45 NNE 3 6 30.25 1024 10 16.0934 0 0
8:55 pm 20:55 Sunny 62 16.4 47 8.1 58 58 N 3 6 30.26 1025 10 16.0934 0 0
9:15 pm 21:15 Clear 60 15.7 47 8.3 62 62 Calm 30.26 1025 10 16.0934 0 0
9:35 pm 21:35 Clear 58 14.7 46 7.6 63 63 NNE 3 6 30.27 1025 10 16.0934 0 0
9:55 pm 21:55 Clear 56 13.6 47 8.1 70 70 NNE 3 6 30.28 1025 10 16.0934 0 0
10:15 pm 22:15 Clear 56 13.2 46 7.8 70 70 Calm 30.3 1026 10 16.0934 0 0
10:35 pm 22:35 Clear 54 12 48 9 82 82 Calm 30.3 1026 10 16.0934 0 0
10:55 pm 22:55 Clear 54 12.2 47 8.5 78 78 Calm 30.31 1027 10 16.0934 0 0
11:15 pm 23:15 Clear 51 10.4 47 8.5 88 88 Calm 30.32 1027 10 16.0934 0 0
11:35 pm 23:35 Clear 50 9.8 45 7.3 85 85 N 5 7 30.32 1027 10 16.0934 0 0
11:55 pm 23:55 Clear 50 10.2 45 7.3 82 82 Calm 30.32 1027 10 16.0934 0 0

Powered by AerisWeather